ONEWEB-0039 (45146 NORAD) Tracking and Keplerian Element Data

This shows tracking and keplerian element data for the satellite.

Feedback or suggestion? Click here.




ElementValue
Catalog45146
NameONEWEB-0039
Epoch Orbit175
Epoch Day184.91667824
Epoch Year2020
RAAN117.1267
Inclination87.4507
Eccentricity0.0020179
Argument of Perigee128.4578
Mean Anonmoly235.4918
Mean Motion14.78896313
Decay Rate-0.00052775
L11 45146U 20008R 20184.91667824 -.00052775 00000-0 -72061-2 0 9994
L22 45146 87.4507 117.1267 0020179 128.4578 235.4918 14.78896313 1757

Live tracking and technical data element details for ONEWEB-0039 (NORAD 45146). ONEWEB-0039 can be tracked NOW for your location showing map with azimuth and elevation plus other details from your city location.

Track the satellite on the map from your city or location and see movement details for azimuth, elevation, latitude, longitude, range, height, and movement on the map or in text.







IsCatalogInMostPopularTable: catalog: 45146, numindb: 31
Update: records affected: 1



GetName: 45146 ONEWEB-0039

Hit Count: updated at: Fri, 03 Jul 2020 17:09:24 GMT